Location: Arbon
(43.0005°N, 0.7472°E)
Time: 10:10:26
(UTC+00:00)

SR - Pass Details

Date: 05 December 2020
Orbit: 575 x 880 km, 66.7° (Epoch: 21 January)

Event Time Altitude Azimuth Distance (km) Brightness Sun altitude
Rises 16:14:50 0° 196° (SSW) 2,792 ? 0.4°
Reaches altitude 10° 16:17:02 10° 191° (S) 1,916 ? 0.0°
Maximum altitude 16:21:11 51° 115° (ESE) 780 ? -0.6°
Drops below altitude 10° 16:25:39 10° 40° (NE) 2,060 ? -1.3°
Sets 16:28:06 0° 36° (NE) 3,025 ? -1.7°
